Location: ???????????
(54.5822°N, 39.1075°E)
Time: 04:23:39
(UTC+00:00)

Lacrosse 4 Rocket - Pass Details

Date: 19 May 2025
Orbit: 513 x 576 km, 68.0° (Epoch: 15 June)

Event Time Altitude Azimuth Distance (km) Brightness Sun altitude
Rises 23:39:58 0° 322° (NW) 2,715 5.1 -9.7°
Reaches altitude 10° 23:42:19 10° 332° (NNW) 1,831 4.4 -9.5°
Maximum altitude 23:46:03 33° 37° (NE) 948 3.4 -9.2°
Drops below altitude 10° 23:49:51 10° 103° (ESE) 1,857 4.3 -8.9°
Sets 23:52:15 0° 113° (ESE) 2,760 5.1 -8.6°
